Location: Axtheid
(49.6213°N, 11.8205°E)
Time: 21:31:49
(UTC+00:00)

Envisat - Pass Details

Date: 22 January 2022
Orbit: 764 x 765 km, 98.2° (Epoch: 21 May)

Event Time Altitude Azimuth Distance (km) Brightness Sun altitude
Rises 03:24:53 0° 21° (NNE) 3,242 6.6 -34.1°
Reaches altitude 10° 03:27:26 10° 31° (NNE) 2,311 5.9 -33.7°
Maximum altitude 03:31:59 32° 95° (E) 1,286 4.6 -32.9°
Drops below altitude 10° 03:36:31 10° 158° (SSE) 2,297 5.6 -32.2°
Sets 03:39:02 0° 168° (SSE) 3,218 6.3 -31.8°
